FW7184 Weather Reports


Display with metric or nautical units.
time (UTC)temp
F
wind
direction
speed
MPH
gust
MPH
rain 1hr
in
rain 24hr
in
rain mn
in
humidity
%
barometer
mb
20260502212802 57 110 0.0 0.0 0.00 0.05 0.05 43 1010.1
20260502212259 57 92 0.0 0.0 0.00 0.05 0.05 44 1010.0
20260502211754 57 77 1.0 2.0 0.00 0.05 0.05 42 1010.1
20260502211252 58 37 1.0 1.0 0.00 0.05 0.05 44 1010.1
20260502210749 58 115 0.0 0.0 0.00 0.05 0.05 43 1010.0
20260502210246 58 122 0.0 0.0 0.00 0.05 0.05 42 1009.9
20260502205744 59 73 2.0 2.0 0.00 0.05 0.05 40 1009.9
20260502205240 59 152 0.0 1.0 0.00 0.05 0.05 43 1009.9
20260502204737 58 91 0.0 0.0 0.00 0.05 0.05 47 1009.7
20260502204234 58 156 1.0 2.0 0.00 0.05 0.05 45 1009.8
20260502203732 59 105 0.0 0.0 0.00 0.05 0.05 45 1010.0
20260502203230 58 93 0.0 1.0 0.00 0.05 0.05 46 1010.1
20260502202723 58 135 0.0 1.0 0.00 0.05 0.05 45 1010.1
20260502202222 58 120 0.0 0.0 0.00 0.05 0.05 45 1010.4
20260502201719 58 101 1.0 1.0 0.00 0.05 0.05 44 1010.3
20260502201215 58 77 1.0 2.0 0.00 0.05 0.05 42 1010.3
20260502200706 58 132 0.0 0.0 0.00 0.05 0.05 43 1010.3
20260502200202 58 86 1.0 2.0 0.00 0.05 0.05 43 1010.5
20260502195701 58 116 0.0 0.0 0.00 0.05 0.05 46 1010.5
20260502195157 58 101 2.0 2.0 0.00 0.05 0.05 44 1010.5
20260502194653 58 42 1.0 2.0 0.00 0.05 0.05 45 1010.4
20260502194150 59 47 1.0 1.0 0.00 0.05 0.05 43 1010.3
20260502193647 59 68 1.0 1.0 0.00 0.05 0.05 44 1010.6
20260502193144 59 126 0.0 1.0 0.00 0.05 0.05 46 1010.7
20260502192639 58 114 0.0 0.0 0.00 0.05 0.05 45 1010.9
20260502192137 59 128 0.0 1.0 0.00 0.05 0.05 47 1010.9
20260502191634 58 173 2.0 3.0 0.00 0.05 0.05 48 1011.1
20260502191131 58 12 3.0 5.0 0.00 0.05 0.05 49 1011.0
20260502190628 59 151 1.0 2.0 0.00 0.05 0.05 48 1011.0
20260502190127 59 126 0.0 1.0 0.00 0.05 0.05 51 1011.0
20260502185620 58 189 0.0 1.0 0.00 0.05 0.05 49 1011.5
20260502185117 58 132 0.0 0.0 0.00 0.05 0.05 50 1011.1
20260502184614 59 119 0.0 0.0 0.00 0.05 0.05 49 1011.2
20260502184109 58 121 0.0 0.0 0.00 0.05 0.05 52 1011.3
20260502183606 58 89 3.0 3.0 0.00 0.05 0.05 48 1011.5
20260502183102 57 99 0.0 1.0 0.00 0.05 0.05 54 1011.5
20260502182557 57 104 1.0 1.0 0.00 0.05 0.05 54 1011.5
20260502182053 58 80 0.0 1.0 0.00 0.05 0.05 55 1011.5
20260502181551 57 60 2.0 2.0 0.00 0.05 0.05 57 1011.6
20260502181049 58 73 1.0 1.0 0.00 0.05 0.05 58 1011.5
20260502180546 57 103 0.0 1.0 0.00 0.05 0.05 59 1011.7
20260502170459 57 135 0.0 1.0 0.00 0.05 0.05 62 1011.9
20260502163943 56 147 0.0 1.0 0.00 0.05 0.05 64 1012.0
20260502163439 56 54 2.0 2.0 0.00 0.05 0.05 66 1012.0
20260502162937 56 121 1.0 1.0 0.00 0.05 0.05 66 1012.2
20260502162434 57 128 0.0 0.0 0.00 0.05 0.05 65 1012.2
20260502161931 57 78 1.0 1.0 0.00 0.05 0.05 66 1012.3
20260502161427 55 72 1.0 2.0 0.00 0.05 0.05 67 1012.2
20260502160925 55 75 2.0 3.0 0.00 0.05 0.05 68 1012.3
20260502160423 55 115 1.0 2.0 0.00 0.05 0.05 69 1012.0
20260502151901 54 25 1.0 2.0 0.00 0.05 0.05 75 1012.5
20260502151357 53 129 0.0 0.0 0.00 0.05 0.05 75 1012.5
20260502150855 53 131 0.0 1.0 0.00 0.05 0.05 77 1012.5
20260502150351 53 81 0.0 1.0 0.00 0.05 0.05 76 1012.3
20260502130739 52 69 0.0 1.0 0.00 0.05 0.05 86 1012.7
20260502130237 51 120 0.0 0.0 0.00 0.05 0.05 87 1012.4
20260502123723 49 106 0.0 0.0 0.00 0.05 0.05 93 1012.5
20260502123219 49 131 0.0 0.0 0.00 0.05 0.05 95 1012.6
20260502122716 49 136 0.0 0.0 0.00 0.05 0.05 96 1012.4
20260502122212 49 115 0.0 1.0 0.00 0.05 0.05 97 1012.4
20260502121711 49 123 0.0 0.0 0.00 0.05 0.05 98 1012.3
20260502121209 49 104 1.0 1.0 0.00 0.05 0.05 98 1012.4
20260502120704 48 31 0.0 0.0 0.00 0.05 0.05 99 1012.4
20260502120201 48 113 0.0 0.0 0.00 0.05 0.05 99 1012.3
20260502115659 48 119 0.0 0.0 0.00 0.05 0.05 99 1012.3
20260502115155 48 128 0.0 0.0 0.00 0.05 0.05 99 1012.8
20260502114651 48 120 0.0 0.0 0.00 0.05 0.05 99 1012.6
20260502114149 48 128 0.0 0.0 0.00 0.05 0.05 99 1012.4
20260502113646 48 108 0.0 0.0 0.00 0.05 0.05 99 1012.6
20260502113144 48 120 0.0 0.0 0.00 0.05 0.05 99 1012.3
20260502112642 48 125 0.0 0.0 0.00 0.05 0.05 99 1012.4
20260502112139 48 120 0.0 0.0 0.00 0.05 0.05 99 1012.4
20260502111636 48 106 0.0 0.0 0.00 0.05 0.05 99 1012.1
20260502111134 48 119 0.0 0.0 0.00 0.05 0.05 99 1012.2
20260502110632 48 117 0.0 0.0 0.00 0.05 0.05 99 1012.1
20260502110129 48 123 0.0 0.0 0.00 0.05 0.05 99 1012.0
20260502105626 48 119 0.0 0.0 0.00 0.05 0.05 99 1012.2
20260502105117 47 121 0.0 0.0 0.00 0.05 0.05 99 1011.8
20260502104614 47 125 0.0 0.0 0.00 0.05 0.05 99 1012.0
20260502104112 47 123 0.0 0.0 0.00 0.05 0.05 99 1011.8
20260502103610 47 121 0.0 0.0 0.00 0.05 0.05 99 1012.0
20260502103108 47 131 0.0 0.0 0.00 0.05 0.05 99 1012.0
20260502102604 47 123 0.0 0.0 0.00 0.05 0.05 99 1012.0
20260502102101 47 124 0.0 0.0 0.00 0.05 0.05 99 1012.0
20260502101559 47 127 0.0 0.0 0.00 0.05 0.05 99 1012.0
20260502101057 47 131 0.0 0.0 0.00 0.05 0.05 99 1011.9
20260502100554 47 128 0.0 0.0 0.00 0.05 0.05 99 1011.5
20260502091530 48 127 0.0 0.0 0.00 0.01 0.01 97 1012.0
20260502091027 48 127 0.0 0.0 0.00 0.01 0.01 97 1011.9
20260502090524 48 134 0.0 0.0 0.00 0.01 0.01 97 1011.8
20260502071418 48 126 0.0 0.0 0.00 0.00 0.00 96 1011.9
20260502070916 48 123 0.0 0.0 0.00 0.00 0.00 96 1011.9
20260502070414 48 121 0.0 0.0 0.00 0.00 0.00 96 1011.9
20260502065912 48 123 0.0 0.0 0.00 0.00 0.00 96 1011.7
20260502065410 48 127 0.0 0.0 0.00 0.00 0.00 96 1011.5
20260502064908 48 128 0.0 0.0 0.00 0.00 0.00 96 1011.6
20260502064406 48 118 0.0 0.0 0.00 0.00 0.00 96 1011.8
20260502063903 48 123 0.0 0.0 0.00 0.00 0.00 95 1012.0
20260502063400 48 113 0.0 0.0 0.00 0.00 0.00 95 1011.9
20260502062857 48 122 0.0 0.0 0.00 0.00 0.00 95 1011.9
20260502062355 48 123 0.0 0.0 0.00 0.00 0.00 95 1011.8
20260502061854 49 121 0.0 0.0 0.00 0.00 0.00 94 1011.8
20260502061351 49 123 0.0 0.0 0.00 0.00 0.00 94 1011.8
20260502060847 49 118 0.0 0.0 0.00 0.00 0.00 94 1011.8
20260502060342 49 129 0.0 0.0 0.00 0.00 0.00 94 1012.1
20260502055839 49 131 0.0 0.0 0.00 0.00 0.00 93 1011.9
20260502055338 49 127 0.0 0.0 0.00 0.00 0.00 93 1012.0
20260502054837 49 117 0.0 0.0 0.00 0.00 0.00 92 1011.9
20260502054334 49 122 0.0 0.0 0.00 0.00 0.00 92 1012.4
20260502053831 49 120 0.0 0.0 0.00 0.00 0.00 92 1012.1
20260502053328 49 127 0.0 0.0 0.00 0.00 0.00 91 1012.2
20260502052826 49 122 0.0 0.0 0.00 0.00 0.00 91 1011.9
20260502052324 49 129 0.0 0.0 0.00 0.00 0.00 90 1011.9
20260502051821 49 123 0.0 0.0 0.00 0.00 0.00 90 1012.0
20260502051320 49 119 0.0 0.0 0.00 0.00 0.00 89 1011.8
20260502050816 50 125 0.0 0.0 0.00 0.00 0.00 89 1012.1
20260502050312 50 126 0.0 0.0 0.00 0.00 0.00 88 1012.1
20260502045810 50 120 0.0 0.0 0.00 0.00 0.00 88 1012.0
20260502045306 50 125 0.0 0.0 0.00 0.00 0.00 87 1012.0
20260502044803 50 130 0.0 0.0 0.00 0.00 0.00 87 1012.0
20260502044259 50 123 0.0 0.0 0.00 0.00 0.00 87 1012.2
20260502043757 50 126 0.0 0.0 0.00 0.00 0.00 87 1012.1
20260502043254 50 134 0.0 0.0 0.00 0.00 0.00 88 1012.1
20260502042753 50 122 0.0 0.0 0.00 0.00 0.00 87 1012.0
20260502042251 50 122 0.0 0.0 0.00 0.00 0.00 87 1012.0
20260502041748 50 127 0.0 0.0 0.00 0.00 0.00 87 1012.0
20260502041245 50 127 0.0 0.0 0.00 0.00 0.00 87 1011.9
20260502040743 49 121 0.0 0.0 0.00 0.00 0.00 87 1011.9
20260502040239 49 123 0.0 0.0 0.00 0.00 0.00 87 1011.9
20260502035735 49 125 0.0 0.0 0.00 0.00 0.00 87 1012.1
20260502035232 49 126 0.0 0.0 0.00 0.00 0.00 87 1012.1
20260502034729 49 117 0.0 0.0 0.00 0.00 0.00 87 1011.9
20260502034228 49 125 0.0 0.0 0.00 0.00 0.00 87 1011.9
20260502033725 49 126 0.0 0.0 0.00 0.00 0.00 86 1012.2
20260502033223 49 122 0.0 0.0 0.00 0.00 0.00 86 1011.9
20260502032720 50 123 0.0 0.0 0.00 0.00 0.00 86 1011.9
20260502032215 50 121 0.0 0.0 0.00 0.00 0.00 85 1012.0
20260502031714 49 122 0.0 0.0 0.00 0.00 0.00 87 1012.2
20260502031212 49 126 0.0 0.0 0.00 0.00 0.00 88 1012.1
20260502030710 49 122 0.0 0.0 0.00 0.00 0.00 88 1012.2
20260502030208 49 121 0.0 0.0 0.00 0.00 0.00 88 1012.1
20260502025704 49 119 0.0 0.0 0.00 0.00 0.00 89 1012.3
20260502025202 49 124 0.0 0.0 0.00 0.00 0.00 89 1012.4
20260502024700 49 126 0.0 0.0 0.00 0.00 0.00 90 1012.1
20260502024158 48 128 0.0 0.0 0.00 0.00 0.00 90 1012.2
20260502023656 48 124 0.0 0.0 0.00 0.00 0.00 90 1012.2
20260502023153 48 124 0.0 0.0 0.00 0.00 0.00 90 1012.2
20260502022649 48 125 0.0 0.0 0.00 0.00 0.00 90 1012.4
20260502022146 48 119 0.0 0.0 0.00 0.00 0.00 89 1012.4
20260502021644 48 122 0.0 0.0 0.00 0.00 0.00 89 1012.2
20260502021141 49 122 0.0 0.0 0.00 0.00 0.00 89 1012.2
20260502020638 49 122 0.0 0.0 0.00 0.00 0.00 88 1012.3
20260502020135 49 122 0.0 0.0 0.00 0.00 0.00 88 1012.3
20260502015633 49 122 0.0 0.0 0.00 0.00 0.00 87 1012.1
20260502015129 49 123 0.0 0.0 0.00 0.00 0.00 86 1012.1
20260502014627 50 122 0.0 0.0 0.00 0.00 0.00 86 1012.2
20260502014123 50 122 0.0 0.0 0.00 0.00 0.00 85 1012.1
20260502013619 50 122 0.0 0.0 0.00 0.00 0.00 84 1011.8
20260502013115 50 121 0.0 0.0 0.00 0.00 0.00 83 1011.9
20260502012613 51 124 0.0 0.0 0.00 0.00 0.00 83 1012.0
20260502012111 51 122 0.0 0.0 0.00 0.00 0.00 83 1012.0
20260502011607 51 121 0.0 0.0 0.00 0.00 0.00 82 1012.2
20260502011103 52 119 0.0 0.0 0.00 0.00 0.00 82 1012.1
20260502010600 53 116 0.0 0.0 0.00 0.00 0.00 79 1012.2
20260502010056 53 128 0.0 0.0 0.00 0.00 0.00 78 1012.1
20260502005554 53 119 0.0 0.0 0.00 0.00 0.00 76 1012.1
20260502005052 53 129 0.0 0.0 0.00 0.00 0.00 74 1012.1
20260502004548 54 127 0.0 0.0 0.00 0.00 0.00 75 1012.2
20260502004044 54 127 0.0 0.0 0.00 0.00 0.00 74 1012.2
20260502003543 55 128 0.0 0.0 0.00 0.00 0.00 73 1012.0
20260502003039 55 122 0.0 0.0 0.00 0.00 0.00 70 1012.0
20260502002536 55 124 0.0 0.0 0.00 0.00 0.00 69 1012.1
20260502002033 55 130 0.0 0.0 0.00 0.00 0.00 69 1011.9
20260502001531 56 131 0.0 0.0 0.00 0.00 0.00 67 1011.9
20260502001027 56 120 0.0 0.0 0.00 0.00 0.00 65 1011.9
20260502000526 56 116 0.0 0.0 0.00 0.00 0.00 65 1011.8
20260502000023 56 116 0.0 0.0 0.00 0.00 0.00 64 1011.7
20260501235518 56 111 1.0 1.0 0.00 0.00 0.00 64 1011.3
20260501235014 56 110 0.0 0.0 0.00 0.00 0.00 63 1011.5
20260501234510 57 119 0.0 0.0 0.00 0.00 0.00 63 1011.0
20260501234009 57 107 1.0 1.0 0.00 0.00 0.00 62 1010.9
20260501233506 57 130 0.0 0.0 0.00 0.00 0.00 62 1011.1
20260501233002 57 109 0.0 0.0 0.00 0.00 0.00 62 1010.8
20260501232459 57 121 0.0 1.0 0.00 0.00 0.00 60 1010.7
20260501231956 57 141 0.0 0.0 0.00 0.00 0.00 60 1010.8
20260501231455 58 134 0.0 1.0 0.00 0.00 0.00 59 1010.6
20260501230952 58 122 0.0 1.0 0.00 0.00 0.00 60 1010.4
20260501230451 58 120 0.0 0.0 0.00 0.00 0.00 61 1010.6
20260501225948 58 92 1.0 1.0 0.00 0.00 0.00 59 1010.5
20260501225446 58 115 0.0 0.0 0.00 0.00 0.00 58 1010.3
20260501224941 58 136 0.0 1.0 0.00 0.00 0.00 58 1010.2
20260501224439 58 94 0.0 1.0 0.00 0.00 0.00 58 1010.1
20260501223936 59 129 1.0 1.0 0.00 0.00 0.00 56 1010.3
20260501223432 59 106 1.0 1.0 0.00 0.00 0.00 55 1010.2
20260501222927 60 70 1.0 1.0 0.00 0.00 0.00 54 1010.1
20260501222425 61 116 0.0 1.0 0.00 0.00 0.00 52 1010.2
20260501221921 61 109 0.0 0.0 0.00 0.00 0.00 51 1010.2
20260501221419 62 119 0.0 0.0 0.00 0.00 0.00 49 1010.3
20260501220917 62 75 0.0 1.0 0.00 0.00 0.00 46 1010.2
20260501220414 62 109 0.0 1.0 0.00 0.00 0.00 43 1010.3
20260501215910 62 97 0.0 0.0 0.00 0.00 0.00 43 1010.3
20260501215407 63 120 0.0 0.0 0.00 0.00 0.00 43 1010.0
20260501214902 63 115 0.0 0.0 0.00 0.00 0.00 43 1009.9
20260501214357 63 132 1.0 2.0 0.00 0.00 0.00 40 1009.9
20260501213853 63 112 0.0 1.0 0.00 0.00 0.00 41 1010.2
20260501213350 63 164 1.0 2.0 0.00 0.00 0.00 40 1010.1